FW7622 Weather Reports


Display with metric or nautical units.
time (UTC)temp
F
wind
direction
speed
MPH
gust
MPH
rain 1hr
in
rain 24hr
in
rain mn
in
humidity
%
barometer
mb
20260505213143 48 247 2.0 2.0 0.00 0.00 0.00 50 1009.0
20260505212638 48 283 1.0 3.0 0.00 0.00 0.00 48 1009.0
20260505212136 48 301 3.0 3.0 0.00 0.00 0.00 48 1009.0
20260505211633 49 165 4.0 6.0 0.00 0.00 0.00 48 1009.0
20260505211130 48 213 2.0 3.0 0.00 0.00 0.00 52 1009.0
20260505210627 48 203 3.0 3.0 0.00 0.00 0.00 49 1009.0
20260505210123 49 202 3.0 3.0 0.00 0.00 0.00 51 1009.4
20260505205621 49 110 2.0 3.0 0.00 0.00 0.00 48 1009.0
20260505205119 49 232 3.0 3.0 0.00 0.00 0.00 47 1009.0
20260505204616 50 210 2.0 2.0 0.00 0.00 0.00 49 1009.0
20260505204113 48 198 2.0 2.0 0.00 0.00 0.00 49 1009.0
20260505203609 48 187 2.0 2.0 0.00 0.00 0.00 51 1009.0
20260505203107 48 304 2.0 2.0 0.00 0.00 0.00 49 1009.0
20260505202603 48 207 2.0 2.0 0.00 0.00 0.00 51 1009.4
20260505202059 49 181 3.0 3.0 0.00 0.00 0.00 48 1009.0
20260505201555 50 120 3.0 5.0 0.00 0.00 0.00 47 1009.4
20260505201053 49 38 3.0 5.0 0.00 0.00 0.00 48 1009.0
20260505200551 48 278 3.0 5.0 0.00 0.00 0.00 48 1009.4
20260505200048 49 22 7.0 8.0 0.00 0.00 0.00 48 1009.0
20260505195544 49 204 5.0 6.0 0.00 0.00 0.00 49 1009.0
20260505195042 48 182 1.0 1.0 0.00 0.00 0.00 51 1009.0
20260505194539 48 211 5.0 7.0 0.00 0.00 0.00 49 1009.4
20260505194034 49 182 1.0 1.0 0.00 0.00 0.00 49 1009.0
20260505193531 48 136 1.0 1.0 0.00 0.00 0.00 52 1009.0
20260505193028 47 253 3.0 3.0 0.00 0.00 0.00 50 1009.0
20260505192527 47 246 7.0 9.0 0.00 0.00 0.00 50 1009.4
20260505192024 47 224 1.0 3.0 0.00 0.00 0.00 51 1009.4
20260505191522 47 209 3.0 3.0 0.00 0.00 0.00 51 1009.0
20260505191020 47 165 3.0 3.0 0.00 0.00 0.00 50 1009.4
20260505190514 47 281 3.0 6.0 0.00 0.00 0.00 51 1009.0
20260505190011 47 345 6.0 8.0 0.00 0.00 0.00 51 1009.4
20260505185508 47 172 3.0 5.0 0.00 0.00 0.00 50 1009.4
20260505185004 48 291 3.0 5.0 0.00 0.00 0.00 49 1009.4
20260505184501 47 198 3.0 3.0 0.00 0.00 0.00 51 1009.4
20260505183957 47 156 0.0 1.0 0.00 0.00 0.00 54 1009.0
20260505183454 46 168 2.0 3.0 0.00 0.00 0.00 51 1009.4
20260505182951 46 216 4.0 6.0 0.00 0.00 0.00 51 1009.0
20260505182448 46 205 5.0 8.0 0.00 0.00 0.00 51 1009.0
20260505181944 48 47 4.0 8.0 0.00 0.00 0.00 50 1009.0
20260505181442 47 200 2.0 3.0 0.00 0.00 0.00 52 1009.4
20260505180938 46 100 3.0 5.0 0.00 0.00 0.00 52 1009.4
20260505180434 46 118 1.0 2.0 0.00 0.00 0.00 52 1009.4
20260505175932 46 1 3.0 3.0 0.00 0.00 0.00 53 1009.4
20260505175428 46 349 3.0 6.0 0.00 0.00 0.00 52 1009.0
20260505174924 45 64 1.0 1.0 0.00 0.00 0.00 52 1009.0
20260505174422 45 53 2.0 3.0 0.00 0.00 0.00 53 1009.4
20260505173918 45 246 3.0 6.0 0.00 0.00 0.00 53 1009.4
20260505173414 45 347 4.0 7.0 0.00 0.00 0.00 53 1009.0
20260505172911 44 180 2.0 2.0 0.00 0.00 0.00 54 1009.0
20260505172409 45 253 3.0 5.0 0.00 0.00 0.00 52 1009.0
20260505171908 45 172 1.0 2.0 0.00 0.00 0.00 53 1009.0
20260505171406 45 154 0.0 1.0 0.00 0.00 0.00 55 1009.4
20260505170902 45 195 4.0 6.0 0.00 0.00 0.00 52 1009.0
20260505170359 45 168 0.0 0.0 0.00 0.00 0.00 54 1009.4
20260505165854 45 11 1.0 2.0 0.00 0.00 0.00 53 1009.4
20260505165350 44 164 2.0 2.0 0.00 0.00 0.00 55 1009.4
20260505164846 44 214 6.0 8.0 0.00 0.00 0.00 53 1009.4
20260505164343 45 194 1.0 2.0 0.00 0.00 0.00 53 1009.4
20260505163841 44 272 3.0 3.0 0.00 0.00 0.00 52 1009.0
20260505163340 44 203 5.0 8.0 0.00 0.00 0.00 53 1009.0
20260505162838 44 168 0.0 0.0 0.00 0.00 0.00 53 1009.0
20260505162334 44 138 2.0 3.0 0.00 0.00 0.00 52 1009.0
20260505161831 44 156 3.0 6.0 0.00 0.00 0.00 53 1009.0
20260505161328 44 198 2.0 2.0 0.00 0.00 0.00 52 1009.0
20260505160825 44 233 2.0 5.0 0.00 0.00 0.00 52 1009.0
20260505160323 44 220 3.0 5.0 0.00 0.00 0.00 53 1008.7
20260505153302 44 215 5.0 6.0 0.00 0.00 0.00 50 1008.7
20260505152759 45 221 5.0 6.0 0.00 0.00 0.00 51 1008.7
20260505152255 46 213 1.0 2.0 0.00 0.00 0.00 52 1008.7
20260505151750 45 354 7.0 8.0 0.00 0.00 0.00 53 1008.7
20260505151248 44 59 2.0 3.0 0.00 0.00 0.00 51 1008.4
20260505150744 44 179 2.0 2.0 0.00 0.00 0.00 54 1008.7
20260505150242 45 298 3.0 5.0 0.00 0.00 0.00 54 1008.7
20260505140212 43 161 2.0 2.0 0.00 0.00 0.00 58 1008.4
20260505130135 40 321 3.0 3.0 0.00 0.00 0.00 63 1007.7
20260505124625 40 171 1.0 1.0 0.00 0.00 0.00 64 1007.2
20260505124121 39 343 4.0 6.0 0.00 0.00 0.00 65 1007.2
20260505123617 39 155 1.0 1.0 0.00 0.00 0.00 65 1007.2
20260505123114 39 175 3.0 3.0 0.00 0.00 0.00 66 1007.7
20260505122611 39 167 1.0 2.0 0.00 0.00 0.00 68 1007.2
20260505122108 39 175 1.0 2.0 0.00 0.00 0.00 69 1007.2
20260505121605 39 160 1.0 1.0 0.00 0.00 0.00 70 1006.9
20260505121102 38 206 2.0 2.0 0.00 0.00 0.00 72 1006.9
20260505120558 37 168 0.0 0.0 0.00 0.00 0.00 75 1006.9
20260505120054 37 172 0.0 1.0 0.00 0.00 0.00 77 1006.9
20260505115548 36 220 1.0 1.0 0.00 0.00 0.00 78 1006.6
20260505115046 35 215 1.0 1.0 0.00 0.00 0.00 80 1006.6
20260505114543 35 178 0.0 0.0 0.00 0.00 0.00 81 1006.6
20260505114039 34 172 0.0 0.0 0.00 0.00 0.00 83 1006.6
20260505113535 34 180 0.0 1.0 0.00 0.00 0.00 84 1005.9
20260505113032 33 177 0.0 1.0 0.00 0.00 0.00 86 1006.2
20260505112528 33 175 0.0 0.0 0.00 0.00 0.00 86 1006.2
20260505112026 33 176 0.0 0.0 0.00 0.00 0.00 86 1006.2
20260505111520 33 165 0.0 0.0 0.00 0.00 0.00 86 1006.2
20260505111016 33 173 0.0 0.0 0.00 0.00 0.00 86 1005.9
20260505110513 33 173 0.0 0.0 0.00 0.00 0.00 85 1005.9
20260505101945 35 174 1.0 1.0 0.00 0.00 0.00 82 1005.9
20260505101444 35 176 0.0 1.0 0.00 0.00 0.00 82 1005.9
20260505100940 35 172 0.0 1.0 0.00 0.00 0.00 82 1005.5
20260505100437 34 184 0.0 1.0 0.00 0.00 0.00 82 1005.9
20260505095933 34 171 0.0 0.0 0.00 0.00 0.00 83 1005.9
20260505095430 34 168 0.0 0.0 0.00 0.00 0.00 82 1005.5
20260505094926 35 175 0.0 0.0 0.00 0.00 0.00 81 1005.9
20260505094423 35 175 0.0 0.0 0.00 0.00 0.00 80 1005.2
20260505093919 36 182 1.0 1.0 0.00 0.00 0.00 79 1005.9
20260505093416 36 170 0.0 0.0 0.00 0.00 0.00 78 1005.5
20260505092913 37 161 0.0 0.0 0.00 0.00 0.00 78 1005.5
20260505092412 37 180 0.0 1.0 0.00 0.00 0.00 77 1005.2
20260505091909 37 171 0.0 0.0 0.00 0.00 0.00 76 1005.2
20260505091406 37 192 2.0 2.0 0.00 0.00 0.00 76 1005.2
20260505090904 37 211 3.0 3.0 0.00 0.00 0.00 76 1005.2
20260505090402 37 156 0.0 0.0 0.00 0.00 0.00 77 1004.9
20260505085859 37 255 0.0 1.0 0.00 0.00 0.00 76 1004.9
20260505085357 37 192 1.0 2.0 0.00 0.00 0.00 76 1004.9
20260505084855 38 187 1.0 1.0 0.00 0.00 0.00 75 1004.9
20260505084353 38 257 1.0 2.0 0.00 0.00 0.00 75 1004.9
20260505083850 38 149 0.0 0.0 0.00 0.00 0.00 75 1004.5
20260505083347 38 180 1.0 1.0 0.00 0.00 0.00 75 1004.5
20260505082844 38 186 1.0 2.0 0.00 0.00 0.00 75 1004.5
20260505082340 37 227 2.0 3.0 0.00 0.00 0.00 75 1004.5
20260505081836 37 241 2.0 2.0 0.00 0.00 0.00 77 1004.5
20260505081333 37 79 1.0 2.0 0.00 0.00 0.00 77 1004.5
20260505080830 37 169 0.0 0.0 0.00 0.00 0.00 77 1004.2
20260505080326 36 168 1.0 1.0 0.00 0.00 0.00 78 1004.2
20260505075821 35 175 0.0 0.0 0.00 0.00 0.00 79 1004.2
20260505075319 36 175 0.0 0.0 0.00 0.00 0.00 78 1004.2
20260505074816 36 171 0.0 0.0 0.00 0.00 0.00 77 1004.2
20260505074313 36 174 0.0 0.0 0.00 0.00 0.00 78 1004.5
20260505073810 35 224 1.0 1.0 0.00 0.00 0.00 79 1004.2
20260505073308 35 174 0.0 0.0 0.00 0.00 0.00 80 1004.2
20260505072805 35 174 0.0 0.0 0.00 0.00 0.00 80 1004.5
20260505072301 35 174 0.0 0.0 0.00 0.00 0.00 80 1004.5
20260505071757 35 174 0.0 0.0 0.00 0.00 0.00 80 1004.5
20260505071253 34 174 0.0 0.0 0.00 0.00 0.00 80 1004.5
20260505070751 34 168 0.0 0.0 0.00 0.00 0.00 80 1004.2
20260505070248 34 168 0.0 0.0 0.00 0.00 0.00 79 1004.2
20260505065743 35 168 0.0 0.0 0.00 0.00 0.00 78 1004.5
20260505065240 35 168 0.0 0.0 0.00 0.00 0.00 78 1004.2
20260505064737 35 168 0.0 0.0 0.00 0.00 0.00 76 1004.5
20260505064235 36 168 0.0 0.0 0.00 0.00 0.00 77 1004.5
20260505063732 36 168 0.0 0.0 0.00 0.00 0.00 76 1004.5
20260505063228 36 168 0.0 0.0 0.00 0.00 0.00 76 1004.2
20260505062725 36 167 0.0 0.0 0.00 0.00 0.00 76 1004.5
20260505062223 36 167 0.0 0.0 0.00 0.00 0.00 75 1004.5
20260505061719 37 168 0.0 0.0 0.00 0.00 0.00 74 1004.2
20260505061217 37 163 0.0 0.0 0.00 0.00 0.00 73 1004.5
20260505060714 37 171 0.0 0.0 0.00 0.00 0.00 74 1004.5
20260505060211 37 171 0.0 0.0 0.00 0.00 0.00 72 1004.2
20260505055707 38 179 0.0 0.0 0.00 0.00 0.00 71 1004.5
20260505055203 38 176 0.0 0.0 0.00 0.00 0.00 72 1004.2
20260505054700 38 172 0.0 0.0 0.00 0.00 0.00 71 1004.2
20260505054158 38 175 0.0 0.0 0.00 0.00 0.00 70 1004.2
20260505053656 39 175 0.0 0.0 0.00 0.00 0.00 70 1004.5
20260505053152 39 175 0.0 0.0 0.00 0.00 0.00 68 1004.2
20260505052649 40 175 0.0 0.0 0.00 0.00 0.00 67 1004.2
20260505052147 40 178 0.0 0.0 0.00 0.00 0.00 67 1004.2
20260505051643 40 173 0.0 0.0 0.00 0.00 0.00 67 1004.2
20260505051142 40 162 0.0 0.0 0.00 0.00 0.00 66 1004.2
20260505050639 41 176 1.0 1.0 0.00 0.00 0.00 66 1004.2
20260505050137 40 178 0.0 1.0 0.00 0.00 0.00 67 1004.2
20260505041607 42 178 0.0 0.0 0.00 0.00 0.00 64 1004.2
20260505041104 42 173 0.0 0.0 0.00 0.00 0.00 65 1003.7
20260505040601 42 167 0.0 0.0 0.00 0.00 0.00 64 1003.7
20260505040058 42 180 0.0 1.0 0.00 0.00 0.00 64 1004.2
20260505035555 42 175 0.0 0.0 0.00 0.00 0.00 63 1004.2
20260505035051 43 187 1.0 2.0 0.00 0.00 0.00 64 1004.2
20260505034548 43 172 0.0 1.0 0.00 0.00 0.00 63 1004.2
20260505034044 43 175 0.0 0.0 0.00 0.00 0.00 62 1004.2
20260505033542 44 244 1.0 1.0 0.00 0.00 0.00 62 1004.2
20260505033040 44 163 1.0 1.0 0.00 0.00 0.00 61 1003.7
20260505032537 44 162 0.0 0.0 0.00 0.00 0.00 61 1004.2
20260505032034 44 190 1.0 1.0 0.00 0.00 0.00 60 1004.2
20260505031531 45 175 0.0 0.0 0.00 0.00 0.00 59 1004.2
20260505031027 45 194 1.0 2.0 0.00 0.00 0.00 58 1004.2
20260505030524 46 313 3.0 5.0 0.00 0.00 0.00 58 1003.7
20260505030020 46 165 0.0 0.0 0.00 0.00 0.00 57 1003.7
20260505025516 46 168 0.0 1.0 0.00 0.00 0.00 57 1003.7
20260505025016 47 16 4.0 5.0 0.00 0.00 0.00 57 1003.7
20260505024512 47 5 3.0 6.0 0.00 0.00 0.00 56 1003.7
20260505024009 47 181 2.0 2.0 0.00 0.00 0.00 56 1003.4
20260505023506 47 38 5.0 7.0 0.00 0.00 0.00 55 1003.4
20260505023004 47 131 2.0 2.0 0.00 0.00 0.00 56 1003.4
20260505022501 47 42 5.0 7.0 0.00 0.00 0.00 56 1003.7
20260505021958 47 278 1.0 2.0 0.00 0.00 0.00 56 1003.4
20260505021454 47 189 2.0 2.0 0.00 0.00 0.00 55 1003.1
20260505020950 48 189 2.0 3.0 0.00 0.00 0.00 55 1003.4
20260505020445 48 110 2.0 2.0 0.00 0.00 0.00 55 1003.1
20260505015943 48 174 3.0 3.0 0.00 0.00 0.00 54 1003.1
20260505015440 48 39 1.0 2.0 0.00 0.00 0.00 54 1003.1
20260505014937 48 160 0.0 1.0 0.00 0.00 0.00 52 1002.4
20260505014434 48 182 3.0 3.0 0.00 0.00 0.00 52 1002.4
20260505013931 48 177 1.0 1.0 0.00 0.00 0.00 52 1002.4
20260505013428 49 265 2.0 3.0 0.00 0.00 0.00 51 1002.4
20260505012925 49 324 2.0 2.0 0.00 0.00 0.00 50 1002.4
20260505012423 49 165 2.0 2.0 0.00 0.00 0.00 50 1002.1
20260505011919 49 205 2.0 3.0 0.00 0.00 0.00 51 1002.4
20260505011416 49 348 3.0 5.0 0.00 0.00 0.00 51 1002.4
20260505010913 49 334 3.0 6.0 0.00 0.00 0.00 51 1002.1
20260505010409 49 288 2.0 2.0 0.00 0.00 0.00 53 1002.1
20260505005904 50 9 4.0 5.0 0.00 0.00 0.00 52 1001.7
20260505005402 50 270 2.0 3.0 0.00 0.00 0.00 51 1001.7
20260505004859 50 322 6.0 9.0 0.00 0.00 0.00 52 1002.1
20260505004355 51 291 5.0 9.0 0.00 0.00 0.00 51 1001.4
20260505003853 51 185 2.0 3.0 0.00 0.00 0.00 51 1001.7
20260505003350 52 259 3.0 3.0 0.00 0.00 0.00 50 1001.4
20260505002845 52 173 2.0 2.0 0.00 0.00 0.00 49 1001.4
20260505002342 52 191 2.0 3.0 0.00 0.00 0.00 49 1001.4
20260505001841 52 167 0.0 0.0 0.00 0.00 0.00 50 1001.4
20260505001338 52 17 6.0 8.0 0.00 0.00 0.00 49 1001.0
20260505000835 52 223 3.0 6.0 0.00 0.00 0.00 49 1001.4
20260505000333 52 309 4.0 8.0 0.00 0.00 0.00 49 1001.0
20260504235829 53 218 4.0 6.0 0.00 0.00 0.00 48 1001.0
20260504235326 53 174 1.0 1.0 0.00 0.00 0.00 49 1001.0
20260504234823 53 215 3.0 6.0 0.00 0.00 0.00 47 1001.0
20260504234321 53 163 1.0 3.0 0.00 0.00 0.00 47 1000.7
20260504233817 53 301 3.0 5.0 0.00 0.00 0.00 49 1000.7
20260504233313 54 345 3.0 6.0 0.00 0.00 0.00 49 1000.3
20260504232809 54 131 2.0 2.0 0.00 0.00 0.00 47 1000.7
20260504232307 54 204 1.0 2.0 0.00 0.00 0.00 48 1000.7
20260504231804 55 293 7.0 10.0 0.00 0.00 0.00 47 1000.7
20260504231300 54 223 4.0 5.0 0.00 0.00 0.00 47 1000.3
20260504230756 55 258 8.0 10.0 0.00 0.00 0.00 47 1000.3
20260504230254 55 273 5.0 7.0 0.00 0.00 0.00 47 1000.3
20260504225753 57 115 3.0 3.0 0.00 0.00 0.00 46 999.9
20260504225249 56 183 4.0 6.0 0.00 0.00 0.00 47 999.9
20260504224746 55 245 6.0 10.0 0.00 0.00 0.00 47 999.9
20260504224243 55 19 2.0 3.0 0.00 0.00 0.00 47 999.6
20260504223739 56 245 3.0 6.0 0.00 0.00 0.00 47 999.9
20260504223235 57 227 5.0 7.0 0.00 0.00 0.00 46 999.6
20260504222732 57 54 6.0 8.0 0.00 0.00 0.00 46 999.6
20260504222229 57 285 6.0 11.0 0.00 0.00 0.00 46 999.6
20260504221727 57 266 3.0 8.0 0.00 0.00 0.00 46 999.6
20260504221223 58 339 5.0 6.0 0.00 0.00 0.00 44 999.2
20260504220720 59 28 5.0 8.0 0.00 0.00 0.00 44 998.9
20260504220217 59 353 6.0 11.0 0.00 0.00 0.00 44 999.2
20260504215714 60 304 6.0 9.0 0.00 0.00 0.00 45 999.2
20260504215211 60 193 4.0 5.0 0.00 0.00 0.00 45 998.9
20260504214707 59 300 3.0 3.0 0.00 0.00 0.00 44 998.6
20260504214204 59 177 3.0 5.0 0.00 0.00 0.00 44 998.9
20260504213700 60 269 4.0 5.0 0.00 0.00 0.00 46 998.6